Satellite-Ground Cal/Val Site Overpasses Predictions

Prediction of Satellite NPP Overpassing Cal/Val Site: Antarctic Dome C

Ground Cal/Val Site Location: Latitude: -75.10, Longitude: 123.35; Satellite-Ground Site NADIR distance within 100 km.

Table of predicted overpasses for the next 14.0 days since TLE Epoch: 12/23/2023
Interval Starting Time Ending Time Minimum Distance Time Minimum Distance (km)
1 12/23/2023 07:44:25 12/23/2023 07:44:45 12/23/2023 07:44:35 70.95
2 12/24/2023 07:25:34 12/24/2023 07:26:01 12/24/2023 07:25:47 36.87
3 12/26/2023 15:08:02 12/26/2023 15:08:10 12/26/2023 15:08:06 95.36
4 12/27/2023 14:49:02 12/27/2023 14:49:31 12/27/2023 14:49:17 15.88
5 12/29/2023 07:31:54 12/29/2023 07:32:23 12/29/2023 07:32:09 2.35
6 01/01/2024 14:55:23 01/01/2024 14:55:52 01/01/2024 14:55:38 21.21
7 01/02/2024 14:36:42 01/02/2024 14:36:57 01/02/2024 14:36:50 85.78
8 01/03/2024 07:38:15 01/03/2024 07:38:42 01/03/2024 07:38:28 36.83
